Home   Weather   Wuhan   Past weeks

Flag for China Past Weather in Wuhan, Hubei, China — Yesterday and Last 2 Weeks

Now
54 °F

Clear.


Feels Like: 53 °F
Forecast: 45 / 63 °F
Wind: 3 mph from West

Location: Wuhan Airport

Current Time: Feb 25, 2017 at 12:51:34 pm

Latest Report: Feb 25, 2017 at 12:00 pm


Visibility: 4 mi

Pressure: 30.30 "Hg

Humidity: 63%

Dew Point: 41 °F

Location of WuhanLocation

Past Weather in Wuhan — Graph

°F

Wuhan Temperature Yesterday

Maximum temperature yesterday: 54 °F (at 2:00 pm)
Minimum temperature yesterday: 39 °F (at 6:00 am)
Average temperature yesterday: 47 °F

High & Low Weather Summary for the Past Weeks

 TemperatureHumidityPressure
High72 °F (Feb 16, 2:00 pm)100% (Feb 21, 2:00 pm)30.54 "Hg (Feb 21, 2:00 pm)
Low34 °F (Feb 11, 8:00 am)25% (Feb 13, 3:00 pm)29.68 "Hg (Feb 19, 5:00 pm)
Average49 °F64%30.25 "Hg
* Reported Feb 10 11:00 am — Feb 25 11:00 am, Wuhan, Weather by CustomWeather, © 2017

Note: Actual official high and low records may vary slightly from our data, if they occured in-between our weather recording intervals... More about our weather records

Advertising

Wuhan Weather History for the Previous 24 Hours

Scroll right to see more
 ConditionsComfort  
Time TempWeatherWind HumidityBarometerVisibility
11:00 am
Sat, Feb 25
52 °FClear.3 mph67%30.30 "Hg4 mi
10:00 am50 °FClear.3 mph71%30.33 "Hg4 mi
9:00 am46 °FFog.3 mph82%30.33 "Hg2 mi
8:00 am43 °FFog.3 mph100%30.30 "Hg2 mi
7:00 am39 °FFog.1 mph100%30.30 "Hg2 mi
6:00 am41 °FFog.1 mph100%30.30 "Hg2 mi
5:00 am43 °FFog.3 mph93%30.30 "Hg2 mi
4:00 am43 °FFog.1 mph93%30.30 "Hg2 mi
3:00 am43 °FFog.No wind93%30.30 "Hg3 mi
2:00 am43 °FClear.1 mph93%30.33 "Hg4 mi
1:00 am45 °FClear.1 mph81%30.33 "Hg4 mi
12:00 am45 °FClear.1 mph81%30.33 "Hg5 mi
11:00 pm
Fri, Feb 24
45 °FClear.1 mph81%30.33 "Hg5 mi
10:00 pm46 °FClear.3 mph76%30.33 "Hg5 mi
9:00 pm46 °FClear.1 mph76%30.30 "Hg10 mi
8:00 pm50 °FClear.3 mph58%30.30 "Hg10 mi
7:00 pm50 °FClear.3 mph54%30.30 "Hg10 mi
6:00 pm52 °FSunny.3 mph50%30.30 "Hg10 mi
5:00 pm54 °FSunny.1 mph44%30.27 "Hg10 mi
4:00 pm54 °FSunny.1 mph44%30.27 "Hg10 mi
3:00 pm54 °FPassing clouds.3 mph41%30.30 "HgN/A
2:00 pm54 °FPassing clouds.3 mph44%30.33 "HgN/A
1:00 pm52 °FPassing clouds.3 mph41%30.36 "HgN/A
12:00 pm52 °FSunny.3 mph47%30.39 "Hg10 mi
Weather by CustomWeather, © 2017

See weather overviewHow to use our weather pages